CW8826 Weather Reports


Display with metric or nautical units.
time (UTC)temp
F
wind
direction
speed
MPH
gust
MPH
rain 1hr
in
rain 24hr
in
rain mn
in
humidity
%
barometer
mb
20260510040517 59 113 15.0 19.0 0.00 0.00 0.00 23 1018.3
20260510035517 58 113 13.0 19.0 0.00 0.00 0.00 24 1018.1
20260510034517 59 113 13.0 21.0 0.00 0.00 0.00 25 1017.9
20260510033516 60 113 10.0 16.0 0.00 0.00 0.00 22 1017.7
20260510032617 61 113 9.0 17.0 0.00 0.00 0.00 21 1017.5
20260510031516 61 113 11.0 16.0 0.00 0.00 0.00 22 1017.6
20260510030516 62 113 8.0 14.0 0.00 0.00 0.00 21 1017.1
20260510025517 64 113 9.0 14.0 0.00 0.00 0.00 18 1016.9
20260510024517 63 113 5.0 9.0 0.00 0.00 0.00 19 1016.8
20260510023517 65 113 4.0 8.0 0.00 0.00 0.00 17 1017.3
20260510022516 67 0.0 4.0 0.00 0.00 0.00 17 1017.5
20260510021517 68 113 2.0 3.0 0.00 0.00 0.00 14 1017.4
20260510020537 70 0.0 1.0 0.00 0.00 0.00 14 1017.7
20260510015516 71 0.0 1.0 0.00 0.00 0.00 12 1018.1
20260510014536 72 338 1.0 3.0 0.00 0.00 0.00 12 1018.0
20260510013538 72 0.0 1.0 0.00 0.00 0.00 12 1018.0
20260510012516 72 0.0 1.0 0.00 0.00 0.00 12 1018.0
20260510011516 71 270 2.0 6.0 0.00 0.00 0.00 13 1018.2
20260510010516 71 225 2.0 6.0 0.00 0.00 0.00 12 1017.5
20260510005517 70 90 1.0 4.0 0.00 0.00 0.00 13 1017.3
20260510004517 71 315 3.0 9.0 0.00 0.00 0.00 13 1017.8
20260510003517 71 315 1.0 4.0 0.00 0.00 0.00 13 1017.7
20260510002517 71 270 1.0 3.0 0.00 0.00 0.00 14 1017.7
20260510001516 71 315 2.0 5.0 0.00 0.00 0.00 14 1017.8
20260510000516 71 315 2.0 5.0 0.00 0.00 0.00 13 1018.2
20260509235516 72 270 2.0 5.0 0.00 0.00 0.00 14 1018.2
20260509234516 71 270 2.0 6.0 0.00 0.00 0.00 14 1018.3
20260509233536 71 270 2.0 6.0 0.00 0.00 0.00 14 1018.4
20260509232516 70 315 4.0 11.0 0.00 0.00 0.00 14 1018.0
20260509231517 70 0 5.0 11.0 0.00 0.00 0.00 13 1018.1
20260509230517 70 315 3.0 10.0 0.00 0.00 0.00 15 1018.1
20260509225516 70 338 7.0 13.0 0.00 0.00 0.00 14 1018.3
20260509224536 70 315 5.0 10.0 0.00 0.00 0.00 13 1018.2
20260509223517 70 315 5.0 9.0 0.00 0.00 0.00 17 1018.6
20260509222517 70 315 5.0 12.0 0.00 0.00 0.00 18 1018.6
20260509221516 69 248 4.0 10.0 0.00 0.00 0.00 19 1018.7
20260509220516 70 315 4.0 12.0 0.00 0.00 0.00 20 1018.8
20260509215516 70 315 6.0 12.0 0.00 0.00 0.00 19 1018.9
20260509214516 70 293 4.0 8.0 0.00 0.00 0.00 19 1019.0
20260509213516 70 315 3.0 7.0 0.00 0.00 0.00 19 1019.0
20260509212517 69 315 4.0 12.0 0.00 0.00 0.00 18 1019.0
20260509211518 70 315 6.0 12.0 0.00 0.00 0.00 18 1019.0
20260509210536 69 315 4.0 11.0 0.00 0.00 0.00 16 1019.0
20260509205517 69 338 5.0 12.0 0.00 0.00 0.00 14 1018.9
20260509204517 69 248 3.0 10.0 0.00 0.00 0.00 20 1019.1
20260509203517 68 315 6.0 13.0 0.00 0.00 0.00 18 1019.2
20260509202516 69 270 2.0 6.0 0.00 0.00 0.00 19 1019.3
20260509201516 68 270 3.0 8.0 0.00 0.00 0.00 20 1019.4
20260509200516 67 270 3.0 8.0 0.00 0.00 0.00 17 1019.0
20260509195516 68 338 5.0 13.0 0.00 0.00 0.00 19 1019.4
20260509194517 68 315 4.0 8.0 0.00 0.00 0.00 18 1019.5
20260509193558 68 315 4.0 16.0 0.00 0.00 0.00 19 1019.8
20260509192516 68 315 3.0 7.0 0.00 0.00 0.00 20 1019.5
20260509191516 67 270 3.0 8.0 0.00 0.00 0.00 19 1019.5
20260509190517 67 315 2.0 13.0 0.00 0.00 0.00 20 1019.7
20260509185516 67 315 3.0 10.0 0.00 0.00 0.00 18 1019.7
20260509184517 67 338 6.0 11.0 0.00 0.00 0.00 18 1019.9
20260509183517 67 315 3.0 8.0 0.00 0.00 0.00 17 1020.1
20260509182516 66 270 5.0 12.0 0.00 0.00 0.00 18 1020.1
20260509181517 66 315 5.0 14.0 0.00 0.00 0.00 18 1020.2
20260509180516 66 338 3.0 8.0 0.00 0.00 0.00 17 1019.7
20260509175516 65 23 5.0 12.0 0.00 0.00 0.00 18 1019.8
20260509174516 65 338 5.0 14.0 0.00 0.00 0.00 17 1019.9
20260509173517 65 315 4.0 12.0 0.00 0.00 0.00 19 1020.0
20260509172516 65 315 3.0 12.0 0.00 0.00 0.00 19 1019.9
20260509171517 65 270 4.0 10.0 0.00 0.00 0.00 19 1020.0
20260509170516 64 270 3.0 9.0 0.00 0.00 0.00 21 1020.2
20260509165516 64 315 5.0 12.0 0.00 0.00 0.00 19 1020.3
20260509164537 64 315 5.0 11.0 0.00 0.00 0.00 20 1020.4
20260509163537 64 315 3.0 9.0 0.00 0.00 0.00 18 1020.1
20260509162516 63 315 4.0 9.0 0.00 0.00 0.00 20 1020.1
20260509161516 63 248 2.0 7.0 0.00 0.00 0.00 22 1020.2
20260509160537 63 270 2.0 7.0 0.00 0.00 0.00 21 1020.2
20260509155517 63 315 1.0 4.0 0.00 0.00 0.00 23 1020.4
20260509154516 63 270 1.0 4.0 0.00 0.00 0.00 24 1020.4
20260509153516 62 248 3.0 7.0 0.00 0.00 0.00 24 1020.0
20260509152516 63 0.0 2.0 0.00 0.00 0.00 25 1020.3
20260509151516 62 0.0 2.0 0.00 0.00 0.00 27 1020.0
20260509150537 61 68 1.0 4.0 0.00 0.00 0.00 27 1020.0
20260509145516 60 0.0 0.0 0.00 0.00 0.00 28 1019.9
20260509144516 59 0.0 0.0 0.00 0.00 0.00 27 1019.3
20260509143516 58 0.0 2.0 0.00 0.00 0.00 27 1019.9
20260509142516 57 68 1.0 5.0 0.00 0.00 0.00 28 1019.8
20260509141516 58 68 1.0 3.0 0.00 0.00 0.00 26 1019.7
20260509140516 59 315 1.0 4.0 0.00 0.00 0.00 26 1020.7
20260509135536 59 23 3.0 10.0 0.00 0.00 0.00 25 1020.6
20260509134517 59 23 7.0 15.0 0.00 0.00 0.00 25 1020.5
20260509133536 60 23 6.0 13.0 0.00 0.00 0.00 25 1020.0
20260509132516 60 45 7.0 14.0 0.00 0.00 0.00 24 1020.1
20260509131517 59 23 9.0 19.0 0.00 0.00 0.00 25 1019.8
20260509130516 59 45 7.0 20.0 0.00 0.00 0.00 25 1019.6
20260509125516 58 0 3.0 7.0 0.00 0.00 0.00 25 1019.6
20260509124536 57 90 2.0 7.0 0.00 0.00 0.00 26 1019.0
20260509123516 55 68 1.0 4.0 0.00 0.00 0.00 29 1018.5
20260509122516 56 0.0 2.0 0.00 0.00 0.00 30 1018.7
20260509121517 57 113 2.0 11.0 0.00 0.00 0.00 29 1018.6
20260509120516 55 113 3.0 10.0 0.00 0.00 0.00 33 1018.6
20260509115536 56 113 3.0 8.0 0.00 0.00 0.00 32 1018.5
20260509114516 57 113 2.0 4.0 0.00 0.00 0.00 30 1018.7
20260509113517 57 113 1.0 2.0 0.00 0.00 0.00 31 1018.4
20260509112516 57 113 3.0 8.0 0.00 0.00 0.00 34 1018.3
20260509111517 57 113 4.0 7.0 0.00 0.00 0.00 35 1017.9
20260509110517 57 113 2.0 6.0 0.00 0.00 0.00 35 1018.2
20260509105516 57 113 3.0 6.0 0.00 0.00 0.00 36 1018.1
20260509104516 57 113 2.0 8.0 0.00 0.00 0.00 36 1018.1
20260509103519 57 113 2.0 6.0 0.00 0.00 0.00 36 1018.0
20260509102517 57 113 3.0 11.0 0.00 0.00 0.00 36 1018.0
20260509101516 58 113 3.0 9.0 0.00 0.00 0.00 35 1017.9
20260509100516 59 113 3.0 7.0 0.00 0.00 0.00 34 1017.7
20260509095536 59 113 1.0 5.0 0.00 0.00 0.00 35 1017.6
20260509094516 59 113 4.0 7.0 0.00 0.00 0.00 34 1017.5
20260509093516 59 135 2.0 7.0 0.00 0.00 0.00 35 1017.5
20260509092517 59 113 2.0 5.0 0.00 0.00 0.00 35 1017.4
20260509091516 59 68 1.0 5.0 0.00 0.00 0.00 35 1017.4
20260509090536 59 113 2.0 8.0 0.00 0.00 0.00 36 1017.1
20260509085516 59 113 3.0 6.0 0.00 0.00 0.00 36 1017.1
20260509084516 60 90 1.0 2.0 0.00 0.00 0.00 35 1017.4
20260509083537 60 90 4.0 10.0 0.00 0.00 0.00 34 1016.9
20260509082536 61 113 6.0 13.0 0.00 0.00 0.00 32 1017.1
20260509081516 60 113 5.0 12.0 0.00 0.00 0.00 34 1016.7
20260509080516 61 90 6.0 11.0 0.00 0.00 0.00 33 1016.6
20260509075516 61 113 7.0 12.0 0.00 0.00 0.00 32 1016.5
20260509074516 60 113 6.0 10.0 0.00 0.00 0.00 33 1016.5
20260509073516 61 113 5.0 11.0 0.00 0.00 0.00 32 1016.1
20260509072517 60 113 5.0 9.0 0.00 0.00 0.00 32 1016.1
20260509071516 61 113 4.0 9.0 0.00 0.00 0.00 32 1016.4
20260509070517 62 113 2.0 4.0 0.00 0.00 0.00 31 1016.3
20260509065516 62 113 1.0 2.0 0.00 0.00 0.00 32 1016.3
20260509064537 62 113 3.0 5.0 0.00 0.00 0.00 31 1016.0
20260509063516 63 113 4.0 8.0 0.00 0.00 0.00 29 1015.8
20260509062516 63 113 4.0 8.0 0.00 0.00 0.00 29 1015.7
20260509061516 63 113 5.0 10.0 0.00 0.00 0.00 29 1015.7
20260509060516 64 113 5.0 10.0 0.00 0.00 0.00 28 1016.0
20260509055517 64 113 3.0 6.0 0.00 0.00 0.00 27 1015.9
20260509054517 63 113 2.0 5.0 0.00 0.00 0.00 28 1015.7
20260509053517 64 113 4.0 8.0 0.00 0.00 0.00 28 1015.6
20260509052517 64 135 1.0 7.0 0.00 0.00 0.00 27 1015.4
20260509051517 64 113 7.0 19.0 0.00 0.00 0.00 28 1015.3
20260509050517 64 90 9.0 16.0 0.00 0.00 0.00 27 1015.4
20260509045517 64 113 10.0 18.0 0.00 0.00 0.00 27 1015.3
20260509044517 64 113 7.0 15.0 0.00 0.00 0.00 28 1015.3
20260509043517 66 113 8.0 16.0 0.00 0.00 0.00 26 1015.5
20260509042517 65 113 10.0 17.0 0.00 0.00 0.00 26 1015.0
20260509041517 64 113 12.0 19.0 0.00 0.00 0.00 28 1015.0